Regional Weather Roundup
Issued by NWS

Home | Current Version | Previous Version | Text Only | Print | Product List | Glossary On
Versions: 1 2 3 4 5 6 7 8 9 10 11 12 13 14 15 16 17 18 19 20 21 22 23 24 25 26 27 28 29 30 31 32 33 34 35 36 37 38 39 40 41 42 43 44 45 46 47 48 49 50
000
ASUS44 KJAN 221810
RWRMS

MISSISSIPPI HOURLY WEATHER ROUNDUP
NATIONAL WEATHER SERVICE JACKSON MS
100 PM CDT TUE JUL 22 2014

NOTE: "FAIR: INDICATES FEW OR NO CLOUDS BELOW 12,000 FEET WITH NO
SIGNIFICANT WEATHER AND/OR OBSTRUCTIONS TO VISIBILITY.

MSZ001>002-007>008-010>013-018>021-025>028-034>036-221900-
NORTHWEST MISSISSIPPI

CITY           SKY/WX    TMP DP  RH WIND       PRES   REMARKS
CLARKSDALE     FAIR      86  72  62 CALM      30.09S HX  92
CLEVELAND      MOCLDY    86  74  68 CALM      30.08R HX  94
GREENWOOD      MOSUNNY   90  71  53 NE8       30.06S HX  96
6HR MIN TEMP:  70; 6HR MAX TEMP:  90;

GREENVILLE     SUNNY     87  70  56 NE3       30.07S HX  92
6HR MIN TEMP:  69; 6HR MAX TEMP:  89;

GRENADA        FAIR      90  72  55 SE6       30.07S HX  96
OLIVE BRANCH   PTSUNNY   88  72  58 CALM      30.10S HX  94
OXFORD         FAIR      86  68  54 N3        30.10S
TUNICA         PTCLDY    86  70  58 CALM      30.10S HX  90
$$

MSZ003>006-009-014>017-022>024-029>033-037>039-221900-
NORTHEAST MISSISSIPPI

CITY           SKY/WX    TMP DP  RH WIND       PRES   REMARKS
BELMONT        LGT RAIN  81  74  81 SE6       30.09F
COLUMBUS AFB   CLOUDY    81  71  73 CALM      30.09S
6HR MIN TEMP:  72; 6HR MAX TEMP:  82; 6HR PCP: TRACE;

CORINTH        FAIR      86  70  58 E3        30.08S HX  90
GOLDN TRIANGLE PTSUNNY   82  72  69 CALM      30.09S
STARKVILLE     FAIR      79  72  78 E5        30.09R
TUPELO         PTSUNNY   87  72  60 S7        30.08S HX  93
6HR MIN TEMP:  72; 6HR MAX TEMP:  87;

$$

MSZ040-058-221900-
CENTRAL MISSISSIPPI

CITY           SKY/WX    TMP DP  RH WIND       PRES   REMARKS
JACKSON INTL   PTSUNNY   85  72  65 E10       30.06S HX  91
6HR MIN TEMP:  71; 6HR MAX TEMP:  88;

JACKSON HAWKNS PTSUNNY   86  70  58 NE5       30.07S HX  90
6HR MIN TEMP:  71; 6HR MAX TEMP:  87;

MERIDIAN KEY   PTSUNNY   83  71  67 NE3       30.05F
6HR MIN TEMP:  74; 6HR MAX TEMP:  85;

MERIDIAN NAS   PTSUNNY   84  72  67 E3        30.06F
6HR MIN TEMP:  74; 6HR MAX TEMP:  84;

RAYMOND        FAIR      86  81  84 E3        30.06S HX 102
VICKSBURG      MOSUNNY   89  72  56 CALM      30.06S HX  96
$$

MSZ059>079-221900-
SOUTH MISSISSIPPI

CITY           SKY/WX    TMP DP  RH WIND       PRES   REMARKS
BROOKHAVEN     FAIR      84  72  65 NE5       30.08S
COLUMBIA       FAIR      84  75  74 N7        30.04S HX  92
HATTIESBURG    PTSUNNY   88  73  61 VRB3      30.03F THUNDER HX  95
6HR MIN TEMP:  74; 6HR MAX TEMP:  90;

MCCOMB         PTSUNNY   87  70  56 NE6       30.05F HX  92
6HR MIN TEMP:  71; 6HR MAX TEMP:  87;

NATCHEZ        MOSUNNY   84  72  65 N8        30.07S
6HR MIN TEMP:  68; 6HR MAX TEMP:  84;

PINE BELT      CLOUDY    88  72  58 N7        30.06F HX  94
6HR MIN TEMP:  73; 6HR MAX TEMP:  88;

$$

MSZ080>082-221900-
COASTAL MISSISSIPPI

CITY           SKY/WX    TMP DP  RH WIND       PRES   REMARKS
BAY ST LOUIS   MOSUNNY  N/A N/A N/A CALM      30.02F
BILOXI         MOSUNNY   89  71  53 S10       30.02F HX  95
6HR MIN TEMP:  77; 6HR MAX TEMP:  90;

PASCAGOULA     PTSUNNY   88  70  55 SW3       30.02F HX  93
6HR MIN TEMP:  74; 6HR MAX TEMP:  90;

GULFPORT       SUNNY     91  69  48 S7        30.02S HX  96
6HR MIN TEMP:  77; 6HR MAX TEMP:  93;

$$


USA.gov is the U.S. government's official web portal to all federal, state and local government web resources and services.